Location: S�tio Afonso Gruber
(26.1760°S, 49.5250°W)
Time: 07:55:16
(UTC+00:00)

Envisat - Visible Passes

Search period start: 26 February 2021 00:00
Search period end: 08 March 2021 00:00
Orbit: 764 x 766 km, 98.1° (Epoch: 25 February)

Date Brightness Start Highest point End Pass type
(mag) Time Alt. Az. Time Alt. Az. Time Alt. Az.
26 Feb 3.0 08:26:29 10° N 08:31:33 76° WNW 08:36:41 10° SSW visible
27 Feb 4.4 07:50:06 10° NE 07:54:52 42° ESE 07:59:40 10° S visible
28 Feb 5.9 07:15:07 10° ENE 07:18:20 17° ESE 07:21:34 10° SSE visible
01 Mar 3.1 08:15:04 10° NNE 08:20:09 81° ESE 08:25:18 10° S visible
01 Mar 6.5 22:13:46 10° SW 22:15:40 12° WSW 22:17:34 10° W visible
02 Mar 4.9 07:39:03 10° NE 07:43:30 32° ESE 07:48:01 10° SSE visible
03 Mar 6.2 07:04:50 10° E 07:07:02 13° ESE 07:09:15 10° SE visible
03 Mar 3.2 08:40:35 10° N 08:45:31 52° W 08:50:31 10° SSW visible
04 Mar 3.6 08:03:45 10° NNE 08:08:45 61° ESE 08:13:49 10° S visible
04 Mar 6.2 22:01:19 10° SSW 22:04:22 16° WSW 22:07:25 10° WNW visible
05 Mar 5.3 07:28:06 10° NE 07:32:10 24° ESE 07:36:15 10° SSE visible
06 Mar 3.0 08:29:02 10° N 08:34:05 69° WNW 08:39:12 10° SSW visible
07 Mar 4.1 07:52:32 10° NNE 07:57:22 46° ESE 08:02:16 10° S visible
